PEGASUS DEB, 24529

Orbit data source: Space-Track

PEGASUS DEB, 24529 is space debris in LEO originally from a launch on Thu, 19 May 1994 UTC launched from the Air Force Western Test Range (AFWTR). Debris objects in space refer to the collection of defunct objects orbiting the Earth. Examples of debris include non-operational satellites, rocket bodies, and fragments generated from explosions, collisions, or faulty payload assembly.

Loading next visibility...
Identifier
24529, 1994-029WD
Orbit
LEO
Country
Flag of USUS
Related business
Manufacturer
Unknown
Mission
Spacecraft
Bus & Motor
Unknown
Mass
Unknown
Launch date (UTC)
1994-05-19 (32 years ago)
Launch vehicle
Unknown
Launch site
Air Force Western Test Range (AFWTR)
Object type
Payload
Rocket body
Debris
Shape & HBR
Unknown shape, 0.1 m
Radar Cross Section
Medium (>0.1 m² and <1 m²)

Expand to show TLE details & history
Last TLE update: 11 hours ago

TLE from 11 hours ago
0 PEGASUS DEB
1 24529U 94029WD  26174.83336340  .00001138  00000-0  10527-3 0  9997
2 24529  81.9746 113.7237 0104439 264.8856 123.9769 14.89607844253270
Epoch: 2026-06-23T20:00Z
TLE epoch observation values (Epoch: 2026-06-23T20:00:02.597Z)
Latitude
29.577°
Longitude
-93.72151°
Altitude
644.185 km
Speed
7.516 km/s
True Right ascension
07h 53m 09s
True Declination
29° 25' 38"
Sunlit
Object was in daylight at epoch
Visualization orbit readout
Latitude
Unknown
Longitude
Unknown
Altitude
Unknown
Speed
Unknown
Apparent Right ascension
Unknown
Apparent Declination
Unknown
Sunlit
N/A
Visualization observer readout
Local Sidereal Time
17:53:37
Azimuth
Unknown
Elevation
Unknown
Doppler factor
Unknown
Orbital elements
Apogee altitude
669.032 km
Perigee altitude
523.354 km
Semi-major axis
6,974.33 km
Eccentricity
0.01044
Inclination
81.9746°
RAAN
113.7237°
Arg. of periapsis
264.8856°
True anomaly
124.96211°
Mean anomaly
123.9769°
Eccentric anomaly
124.47023°
Mean motion
3.7264 °/min
Orbital period
96.61 mins
BSTAR
0.00010527
Loading maneuver chart data...
Computing Atmospheric mass density...

Documentation

Showing up to 5 results
|